User: anonymous   Login
Location: *
(33.8649°S, 62.1526°E)
Time: 16:03:13
(UTC+00:00)
Language:

FALCON 9 DEB - Orbit

View from above orbital plane
View from above orbital plane
View from above satellite
View from above satellite

Ground track
Ground track

The orbit data is extracted from the following two-line orbital elements,

1 46086U 20055BM  21107.67683167  .00018555  00000-0  19814-3 0  9991
2 46086  53.0067 134.3059 0014968  35.7407 324.4605 15.63881331 44175
Epoch (UTC): 17 April 2021 16:14:38
Eccentricity: 0.0014968
inclination: 53.0067°
perigee height: 366 km
apogee height: 386 km
right ascension of ascending node: 134.3059°
argument of perigee: 35.7407°
revolutions per day: 15.63881331
mean anomaly at epoch: 324.4605°
orbit number at epoch: 4417

The dashed part of the orbit path shows where the satellite is in the earth's shadow,  

DLR